K9JVA Weather Reports


time (UTC)temp
F
wind
direction
speed
knots
gust
knots
rain 1hr
in
rain 24hr
in
rain mn
in
humidity
%
barometer
mb
20260903010606 85 0.0 0.0 0.00 0.00 0.00 66 1017.0
20260903010105 85 0.0 0.0 0.00 0.00 0.00 65 1016.8
20260903005605 85 0.0 0.0 0.00 0.00 0.00 64 1016.8
20260903005105 86 0.0 0.0 0.00 0.00 0.00 63 1016.8
20260903004819 86 0.0 0.0 0.00 0.00 0.00 62 1016.8
20260903004104 87 0.0 0.0 0.00 0.00 0.00 61 1016.8
20260903003602 87 0.0 0.0 0.00 0.00 0.00 60 1016.7
20260903003103 87 0.0 0.0 0.00 0.00 0.00 59 1016.7
20260903002821 88 0.0 0.0 0.00 0.00 0.00 59 1016.7
20260903002102 88 0.0 0.0 0.00 0.00 0.00 57 1016.6
20260903001830 88 0.0 0.0 0.00 0.00 0.00 57 1016.8
20260903001100 89 0.0 0.0 0.00 0.00 0.00 56 1016.6
20260903000822 89 0.0 0.0 0.00 0.00 0.00 56 1016.7
20260903000100 89 0.0 0.0 0.00 0.00 0.00 57 1016.5
20260902235558 90 0.0 0.0 0.00 0.00 0.00 54 1016.6
20260902235058 90 0.0 0.0 0.00 0.00 0.00 53 1016.5
20260902234826 90 0.0 0.0 0.00 0.00 0.00 52 1016.7
20260902234321 91 0.0 0.0 0.00 0.00 0.00 52 1016.6
20260902233555 91 0.0 0.0 0.00 0.00 0.00 51 1016.5
20260902233055 91 0.0 0.0 0.00 0.00 0.00 51 1016.5
20260902232555 91 0.0 0.0 0.00 0.00 0.00 50 1016.6
20260902232316 92 0.0 0.0 0.00 0.00 0.00 49 1016.6
20260902231554 92 0.0 0.0 0.00 0.00 0.00 49 1016.6
20260902231053 92 0.0 0.0 0.00 0.00 0.00 49 1016.5
20260902230814 93 0.0 0.0 0.00 0.00 0.00 50 1016.6
20260902230052 92 0.0 0.0 0.00 0.00 0.00 50 1016.9
20260902225553 92 0.0 0.0 0.00 0.00 0.00 49 1016.7
20260902225051 93 0.0 0.0 0.00 0.00 0.00 47 1016.8
20260902224550 93 0.0 0.0 0.00 0.00 0.00 48 1016.8
20260902224052 93 0.0 0.0 0.00 0.00 0.00 47 1016.7
20260902223813 94 0.0 0.0 0.00 0.00 0.00 45 1016.8
20260902223051 94 0.0 0.0 0.00 0.00 0.00 46 1016.8
20260902222548 94 0.0 0.0 0.00 0.00 0.00 46 1016.7
20260902222048 94 0.0 0.0 0.00 0.00 0.00 46 1016.8
20260902221548 94 0.0 0.0 0.00 0.00 0.00 46 1016.9
20260902221046 94 0.0 0.0 0.00 0.00 0.00 46 1016.8
20260902220548 94 0.0 0.0 0.00 0.00 0.00 46 1016.7
20260902220304 94 0.0 0.0 0.00 0.00 0.00 45 1016.9
20260902215545 95 0.0 0.0 0.00 0.00 0.00 45 1016.7
20260902215044 95 0.0 0.0 0.00 0.00 0.00 44 1016.8
20260902214544 94 0.0 0.0 0.00 0.00 0.00 45 1016.8
20260902214043 94 0.0 0.0 0.00 0.00 0.00 44 1016.9
20260902213543 95 0.0 0.0 0.00 0.00 0.00 44 1016.8
20260902213042 95 0.0 0.0 0.00 0.00 0.00 44 1016.8
20260902212542 95 0.0 0.0 0.00 0.00 0.00 44 1017.0
20260902212041 95 0.0 0.0 0.00 0.00 0.00 44 1016.9
20260902211805 95 0.0 0.0 0.00 0.00 0.00 44 1016.9
20260902211040 94 0.0 0.0 0.00 0.00 0.00 45 1017.1
20260902210539 95 0.0 0.0 0.00 0.00 0.00 43 1017.0
20260902210519 94 0.0 0.0 0.00 0.00 0.00 45 1017.0
20260902205539 93 0.0 0.0 0.00 0.00 0.00 44 1017.1
20260902205256 95 0.0 0.0 0.00 0.00 0.00 44 1017.3
20260902204538 96 0.0 0.0 0.00 0.00 0.00 43 1017.1
20260902204038 95 0.0 0.0 0.00 0.00 0.00 43 1017.1
20260902203536 93 0.0 0.0 0.00 0.00 0.00 44 1017.2
20260902203036 93 0.0 0.0 0.00 0.00 0.00 45 1017.1
20260902202537 95 0.0 0.0 0.00 0.00 0.00 44 1017.3
20260902202035 94 0.0 0.0 0.00 0.00 0.00 45 1017.3
20260902201535 93 0.0 0.0 0.00 0.00 0.00 45 1017.4
20260902201034 93 0.0 0.0 0.00 0.00 0.00 45 1017.3
20260902200534 95 0.0 0.0 0.00 0.00 0.00 44 1017.4
20260902200034 93 0.0 0.0 0.00 0.00 0.00 45 1017.5
20260902195532 93 0.0 0.0 0.00 0.00 0.00 44 1017.6
20260902195031 94 0.0 0.0 0.00 0.00 0.00 43 1017.6
20260902194531 93 0.0 0.0 0.00 0.00 0.00 45 1017.6
20260902194030 93 0.0 0.0 0.00 0.00 0.00 45 1017.6
20260902193532 94 0.0 0.0 0.00 0.00 0.00 45 1017.8
20260902193030 93 0.0 0.0 0.00 0.00 0.00 46 1017.7
20260902192529 93 0.0 0.0 0.00 0.00 0.00 45 1017.8
20260902192030 94 0.0 0.0 0.00 0.00 0.00 44 1017.7
20260902191528 95 0.0 0.0 0.00 0.00 0.00 42 1017.7
20260902191255 94 0.0 0.0 0.00 0.00 0.00 43 1018.0
20260902190527 94 0.0 0.0 0.00 0.00 0.00 45 1018.0
20260902190251 94 0.0 0.0 0.00 0.00 0.00 44 1018.4
20260902185751 93 0.0 0.0 0.00 0.00 0.00 43 1018.3
20260902185026 92 0.0 0.0 0.00 0.00 0.00 45 1018.2
20260902185008 92 0.0 0.0 0.00 0.00 0.00 46 1018.2
20260902184026 94 0.0 0.0 0.00 0.00 0.00 44 1018.3
20260902183524 94 0.0 0.0 0.00 0.00 0.00 45 1018.4
20260902183240 95 0.0 0.0 0.00 0.00 0.00 46 1018.3
20260902182524 94 0.0 0.0 0.00 0.00 0.00 46 1018.4
20260902182022 93 0.0 0.0 0.00 0.00 0.00 50 1018.4
20260902181522 92 0.0 0.0 0.00 0.00 0.00 49 1018.4
20260902181021 91 0.0 0.0 0.00 0.00 0.00 51 1018.4
20260902180521 92 0.0 0.0 0.00 0.00 0.00 48 1018.5
20260902180020 94 0.0 0.0 0.00 0.00 0.00 47 1018.7
20260902175520 93 0.0 0.0 0.00 0.00 0.00 47 1018.7
20260902175019 93 0.0 0.0 0.00 0.00 0.00 47 1018.7
20260902174521 94 0.0 0.0 0.00 0.00 0.00 46 1018.8
20260902174018 92 0.0 0.0 0.00 0.00 0.00 48 1018.7
20260902173518 93 0.0 0.0 0.00 0.00 0.00 47 1018.9
20260902173238 93 0.0 0.0 0.00 0.00 0.00 47 1018.8
20260902172517 94 0.0 0.0 0.00 0.00 0.00 46 1018.9
20260902172016 94 0.0 0.0 0.00 0.00 0.00 45 1018.8
20260902171516 93 0.0 0.0 0.00 0.00 0.00 46 1018.9
20260902171015 92 0.0 0.0 0.00 0.00 0.00 45 1019.0
20260902170731 92 0.0 0.0 0.00 0.00 0.00 47 1019.0
20260902170238 92 0.0 0.0 0.00 0.00 0.00 46 1019.0
20260902165732 92 0.0 0.0 0.00 0.00 0.00 47 1019.1
20260902165015 92 0.0 0.0 0.00 0.00 0.00 48 1019.1
20260902164513 92 0.0 0.0 0.00 0.00 0.00 47 1019.2
20260902164231 92 0.0 0.0 0.00 0.00 0.00 48 1019.1
20260902163513 91 0.0 0.0 0.00 0.00 0.00 48 1019.1
20260902163011 91 0.0 0.0 0.00 0.00 0.00 49 1019.2
20260902162511 91 0.0 0.0 0.00 0.00 0.00 49 1019.3
20260902162012 91 0.0 0.0 0.00 0.00 0.00 49 1019.3
20260902161710 92 0.0 0.0 0.00 0.00 0.00 48 1019.3
20260902160508 91 0.0 0.0 0.00 0.00 0.00 50 1019.4
20260902160009 91 0.0 0.0 0.00 0.00 0.00 51 1019.3
20260902155507 91 0.0 0.0 0.00 0.00 0.00 51 1019.4
20260902155007 91 0.0 0.0 0.00 0.00 0.00 52 1019.5
20260902154506 90 0.0 0.0 0.00 0.00 0.00 52 1019.6
20260902154222 90 0.0 0.0 0.00 0.00 0.00 54 1019.7
20260902153505 90 0.0 0.0 0.00 0.00 0.00 53 1019.6
20260902153236 88 0.0 0.0 0.00 0.00 0.00 56 1019.4
20260902152726 90 0.0 0.0 0.00 0.00 0.00 54 1019.4
20260902152003 90 0.0 0.0 0.00 0.00 0.00 55 1019.5
20260902151503 89 0.0 0.0 0.00 0.00 0.00 56 1019.7
20260902151002 90 0.0 0.0 0.00 0.00 0.00 55 1019.8
20260902150501 89 0.0 0.0 0.00 0.00 0.00 56 1019.8
20260902150230 88 0.0 0.0 0.00 0.00 0.00 59 1019.8
20260902145500 88 0.0 0.0 0.00 0.00 0.00 59 1019.6
20260902145002 88 0.0 0.0 0.00 0.00 0.00 59 1019.6
20260902144500 87 0.0 0.0 0.00 0.00 0.00 60 1019.8
20260902143959 87 0.0 0.0 0.00 0.00 0.00 61 1019.6
20260902143459 87 0.0 0.0 0.00 0.00 0.00 61 1019.6
20260902142958 87 0.0 0.0 0.00 0.00 0.00 61 1019.5
20260902142458 86 0.0 0.0 0.00 0.00 0.00 63 1019.4
20260902141957 85 0.0 0.0 0.00 0.00 0.00 64 1019.6
20260902141457 84 0.0 0.0 0.00 0.00 0.00 67 1019.7
20260902141219 85 0.0 0.0 0.00 0.00 0.00 66 1019.7
20260902140455 83 0.0 0.0 0.00 0.00 0.00 68 1019.7
20260902135954 84 0.0 0.0 0.00 0.00 0.00 68 1019.6
20260902135456 84 0.0 0.0 0.00 0.00 0.00 67 1019.7
20260902135216 84 0.0 0.0 0.00 0.00 0.00 67 1019.7
20260902134453 82 0.0 0.0 0.00 0.00 0.00 69 1019.5
20260902133953 82 0.0 0.0 0.00 0.00 0.00 70 1019.7
20260902133716 82 0.0 0.0 0.00 0.00 0.00 71 1019.7
20260902132952 82 0.0 0.0 0.00 0.00 0.00 71 1019.6
20260902132452 81 0.0 0.0 0.00 0.00 0.00 71 1019.6
20260902132211 81 0.0 0.0 0.00 0.00 0.00 73 1019.7
20260902131707 81 0.0 0.0 0.00 0.00 0.00 72 1019.5
20260902130949 81 0.0 0.0 0.00 0.00 0.00 73 1019.6
20260902130450 81 0.0 0.0 0.00 0.00 0.00 73 1019.5
20260902125949 80 0.0 0.0 0.00 0.00 0.00 73 1019.6
20260902125448 80 0.0 0.0 0.00 0.00 0.00 75 1019.5
20260902124949 80 0.0 0.0 0.00 0.00 0.00 75 1019.6
20260902124447 80 0.0 0.0 0.00 0.00 0.00 76 1019.5
20260902123946 79 0.0 0.0 0.00 0.00 0.00 76 1019.5
20260902123446 79 0.0 0.0 0.00 0.00 0.00 77 1019.1
20260902122946 78 0.0 0.0 0.00 0.00 0.00 79 1019.5
20260902122444 78 0.0 0.0 0.00 0.00 0.00 78 1019.6
20260902122206 78 0.0 0.0 0.00 0.00 0.00 80 1019.3
20260902121443 77 0.0 0.0 0.00 0.00 0.00 80 1019.2
20260902120942 77 0.0 0.0 0.00 0.00 0.00 82 1019.3
20260902120444 76 0.0 0.0 0.00 0.00 0.00 82 1019.2
20260902115942 76 0.0 0.0 0.00 0.00 0.00 83 1019.2
20260902115441 75 0.0 0.0 0.00 0.00 0.00 84 1019.2
20260902115203 75 0.0 0.0 0.00 0.00 0.00 85 1019.1
20260902114709 75 0.0 0.0 0.00 0.00 0.00 85 1019.1
20260902104934 74 0.0 0.0 0.00 0.00 0.00 87 1018.8
20260902104702 74 0.0 0.0 0.00 0.00 0.00 88 1018.9
20260902104152 74 0.0 0.0 0.00 0.00 0.00 89 1018.7
20260902103432 74 0.0 0.0 0.00 0.00 0.00 89 1018.8
20260902103155 74 0.0 0.0 0.00 0.00 0.00 89 1018.8
20260902102432 74 0.0 0.0 0.00 0.00 0.00 89 1018.8
20260902101932 74 0.0 0.0 0.00 0.00 0.00 90 1018.8
20260902101430 74 0.0 0.0 0.00 0.00 0.00 89 1019.0
20260902100929 74 0.0 0.0 0.00 0.00 0.00 90 1018.7
20260902100651 74 0.0 0.0 0.00 0.00 0.00 89 1018.8
20260902095929 74 0.0 0.0 0.00 0.00 0.00 89 1018.7
20260902095649 74 0.0 0.0 0.00 0.00 0.00 89 1018.8
20260902094928 74 0.0 0.0 0.00 0.00 0.00 89 1018.6
20260902094427 74 0.0 0.0 0.00 0.00 0.00 90 1018.6
20260902093928 74 0.0 0.0 0.00 0.00 0.00 90 1018.7
20260902093426 73 0.0 0.0 0.00 0.00 0.00 91 1018.8
20260902092925 73 0.0 0.0 0.00 0.00 0.00 92 1018.8
20260902092648 73 0.0 0.0 0.00 0.00 0.00 92 1018.8
20260902091924 73 0.0 0.0 0.00 0.00 0.00 92 1018.6
20260902091424 73 0.0 0.0 0.00 0.00 0.00 92 1018.6
20260902090923 73 0.0 0.0 0.00 0.00 0.00 92 1018.5
20260902090643 73 0.0 0.0 0.00 0.00 0.00 92 1018.5
20260902085922 73 0.0 0.0 0.00 0.00 0.00 92 1018.6
20260902085421 73 0.0 0.0 0.00 0.00 0.00 91 1018.4
20260902084923 73 0.0 0.0 0.00 0.00 0.00 91 1018.3
20260902084421 73 0.0 0.0 0.00 0.00 0.00 90 1018.2
20260902083920 73 0.0 0.0 0.00 0.00 0.00 90 1018.1
20260902083421 74 0.0 0.0 0.00 0.00 0.00 89 1018.0
20260902082919 74 0.0 0.0 0.00 0.00 0.00 90 1018.3
20260902082418 74 0.0 0.0 0.00 0.00 0.00 89 1017.7
20260902082145 74 0.0 0.0 0.00 0.00 0.00 88 1018.1
20260902081418 74 0.0 0.0 0.00 0.00 0.00 89 1018.1
20260902080916 74 0.0 0.0 0.00 0.00 0.00 89 1018.1
20260902080610 74 0.0 0.0 0.00 0.00 0.00 89 1018.2
20260902075415 74 0.0 0.0 0.00 0.00 0.00 89 1018.0
20260902074915 74 0.0 0.0 0.00 0.00 0.00 88 1017.7
20260902074415 74 0.0 0.0 0.00 0.00 0.00 88 1017.8
20260902073913 74 0.0 0.0 0.00 0.00 0.00 87 1017.8
20260902073412 75 0.0 0.0 0.00 0.00 0.00 87 1018.0
20260902072912 75 0.0 0.0 0.00 0.00 0.00 87 1018.0
20260902072641 75 0.0 0.0 0.00 0.00 0.00 86 1018.0
20260902071911 75 0.0 0.0 0.00 0.00 0.00 86 1018.0
20260902071848 75 0.0 0.0 0.00 0.00 0.00 86 1018.0
20260902070911 75 0.0 0.0 0.00 0.00 0.00 85 1018.0
20260902070411 75 0.0 0.0 0.00 0.00 0.00 84 1017.8
20260902065911 76 0.0 0.0 0.00 0.00 0.00 85 1018.0
20260902065409 76 0.0 0.0 0.00 0.00 0.00 84 1018.2
20260902064908 76 0.0 0.0 0.00 0.00 0.00 84 1017.7
20260902064408 76 0.0 0.0 0.00 0.00 0.00 84 1017.8
20260902063909 76 0.0 0.0 0.00 0.00 0.00 84 1018.0
20260902063406 76 0.0 0.0 0.00 0.00 0.00 84 1018.0
20260902062906 76 0.0 0.0 0.00 0.00 0.00 83 1018.2
20260902062405 76 0.0 0.0 0.00 0.00 0.00 84 1018.0
20260902061905 76 0.0 0.0 0.00 0.00 0.00 83 1017.8
20260902061406 76 0.0 0.0 0.00 0.00 0.00 82 1018.1
20260902060903 76 0.0 0.0 0.00 0.00 0.00 83 1018.0
20260902060403 77 0.0 0.0 0.00 0.00 0.00 83 1018.0
20260902055902 77 0.0 0.0 0.00 0.00 0.00 82 1018.1
20260902055404 77 0.0 0.0 0.00 0.00 0.00 82 1017.7
20260902054903 77 0.0 0.0 0.00 0.00 0.00 82 1018.1
20260902054401 77 0.0 0.0 0.00 0.00 0.00 82 1018.2
20260902053902 77 0.0 0.0 0.00 0.00 0.00 81 1018.0
20260902053400 77 0.0 0.0 0.00 0.00 0.00 81 1017.8
20260902052901 78 0.0 0.0 0.00 0.00 0.00 80 1018.1
20260902052359 78 0.0 0.0 0.00 0.00 0.00 80 1018.1
20260902051858 78 0.0 0.0 0.00 0.00 0.00 79 1018.2
20260902051846 78 0.0 0.0 0.00 0.00 0.00 79 1018.4
20260902050858 78 0.0 0.0 0.00 0.00 0.00 79 1018.2
20260902050358 79 0.0 0.0 0.00 0.00 0.00 78 1018.3
20260902050126 79 0.0 0.0 0.00 0.00 0.00 77 1018.1
20260902045357 80 0.0 0.0 0.00 0.00 0.00 76 1018.0
20260902044855 80 0.0 0.0 0.00 0.00 0.00 75 1018.0
20260902044622 80 0.0 0.0 0.00 0.00 0.00 75 1018.1
20260902044120 79 0.0 0.0 0.00 0.00 0.00 76 1018.0
20260902043354 79 0.0 0.0 0.00 0.00 0.00 77 1018.1
20260902042855 79 0.0 0.0 0.00 0.00 0.00 77 1018.0
20260902042352 79 0.0 0.0 0.00 0.00 0.00 77 1018.1
20260902042342 80 0.0 0.0 0.00 0.00 0.00 76 1018.1
20260902041619 80 0.0 0.0 0.00 0.00 0.00 76 1018.2
20260902040851 80 0.0 0.0 0.00 0.00 0.00 76 1018.1
20260902040351 80 0.0 0.0 0.00 0.00 0.00 76 1018.2
20260902035852 80 0.0 0.0 0.00 0.00 0.00 75 1018.2
20260902035350 80 0.0 0.0 0.00 0.00 0.00 74 1018.3
20260902034849 80 0.0 0.0 0.00 0.00 0.00 74 1018.3
20260902034349 81 0.0 0.0 0.00 0.00 0.00 73 1018.2
20260902033851 81 0.0 0.0 0.00 0.00 0.00 73 1018.1
20260902033348 81 0.0 0.0 0.00 0.00 0.00 73 1018.2
20260902033042 81 0.0 0.0 0.00 0.00 0.00 72 1018.0
20260902031847 81 0.0 0.0 0.00 0.00 0.00 73 1018.0
20260902031346 81 0.0 0.0 0.00 0.00 0.00 74 1018.0
20260902030846 81 0.0 0.0 0.00 0.00 0.00 73 1018.0
20260902030344 81 0.0 0.0 0.00 0.00 0.00 73 1018.1
20260902025844 81 0.0 0.0 0.00 0.00 0.00 73 1018.0
20260902025343 82 0.0 0.0 0.00 0.00 0.00 72 1018.1
20260902024843 81 0.0 0.0 0.00 0.00 0.00 74 1018.2
20260902024344 81 0.0 0.0 0.00 0.00 0.00 73 1018.0
20260902023842 82 0.0 0.0 0.00 0.00 0.00 72 1018.2
20260902023342 82 0.0 0.0 0.00 0.00 0.00 72 1018.1
20260902022842 82 0.0 0.0 0.00 0.00 0.00 72 1017.8
20260902022340 82 0.0 0.0 0.00 0.00 0.00 71 1018.1
20260902021842 82 0.0 0.0 0.00 0.00 0.00 71 1018.1
20260902021601 82 0.0 0.0 0.00 0.00 0.00 70 1017.7
20260902020841 83 0.0 0.0 0.00 0.00 0.00 70 1018.0
20260902020339 83 0.0 0.0 0.00 0.00 0.00 69 1018.1
20260902015839 83 0.0 0.0 0.00 0.00 0.00 68 1018.0
20260902015337 83 0.0 0.0 0.00 0.00 0.00 70 1018.1
20260902014838 83 0.0 0.0 0.00 0.00 0.00 69 1017.8
20260902014604 83 0.0 0.0 0.00 0.00 0.00 68 1018.0
20260902013837 84 0.0 0.0 0.00 0.00 0.00 68 1018.1
20260902013335 84 0.0 0.0 0.00 0.00 0.00 67 1018.1
20260902012835 84 0.0 0.0 0.00 0.00 0.00 66 1017.8
20260902012334 85 0.0 0.0 0.00 0.00 0.00 65 1017.8
20260902012054 85 0.0 0.0 0.00 0.00 0.00 64 1017.8
20260902011333 85 0.0 0.0 0.00 0.00 0.00 64 1017.7